FW9081 Weather Reports


Display with metric or nautical units.
time (UTC)temp
F
wind
direction
speed
MPH
gust
MPH
rain 1hr
in
rain 24hr
in
rain mn
in
humidity
%
barometer
mb
20260508002449 60 184 7.0 8.0 0.00 0.00 0.00 77 1014.2
20260508001948 60 184 7.0 8.0 0.00 0.00 0.00 77 1014.1
20260508001447 60 184 7.0 8.0 0.00 0.00 0.00 77 1014.4
20260508000948 60 184 7.0 8.0 0.00 0.00 0.00 76 1014.2
20260508000450 60 185 7.0 8.0 0.00 0.00 0.00 76 1014.3
20260507235948 60 185 7.0 8.0 0.00 0.00 0.00 76 1014.2
20260507235448 61 183 7.0 8.0 0.00 0.00 0.00 75 1014.3
20260507234948 61 187 7.0 8.0 0.00 0.00 0.00 75 1014.3
20260507234448 61 184 7.0 8.0 0.00 0.00 0.00 75 1014.5
20260507233949 61 184 7.0 8.0 0.00 0.00 0.00 74 1014.2
20260507233448 61 183 7.0 8.0 0.00 0.00 0.00 74 1014.3
20260507232948 62 184 7.0 8.0 0.00 0.00 0.00 74 1014.4
20260507232449 62 184 7.0 7.0 0.00 0.00 0.00 74 1014.6
20260507231948 62 186 7.0 7.0 0.00 0.00 0.00 74 1014.4
20260507231449 62 186 7.0 8.0 0.00 0.00 0.00 73 1014.4
20260507230948 62 186 7.0 8.0 0.00 0.00 0.00 73 1014.5
20260507230448 62 184 7.0 8.0 0.00 0.00 0.00 73 1014.5
20260507225948 62 182 7.0 7.0 0.00 0.00 0.00 72 1014.4
20260507225448 63 184 7.0 7.0 0.00 0.00 0.00 72 1014.4
20260507224948 63 184 7.0 7.0 0.00 0.00 0.00 72 1014.5
20260507224449 63 186 7.0 8.0 0.00 0.00 0.00 72 1014.5
20260507223948 63 183 7.0 8.0 0.00 0.00 0.00 72 1014.6
20260507223448 63 185 7.0 8.0 0.00 0.00 0.00 72 1014.5
20260507222948 63 184 7.0 8.0 0.00 0.00 0.00 72 1014.6
20260507222448 63 184 8.0 8.0 0.00 0.00 0.00 72 1014.4
20260507221948 63 184 7.0 8.0 0.00 0.00 0.00 72 1014.6
20260507221449 63 185 7.0 8.0 0.00 0.00 0.00 72 1014.7
20260507220948 63 183 7.0 8.0 0.00 0.00 0.00 72 1014.6
20260507220449 63 184 7.0 8.0 0.00 0.00 0.00 72 1014.6
20260507215948 63 184 7.0 8.0 0.00 0.00 0.00 72 1014.6
20260507215448 63 183 7.0 8.0 0.00 0.00 0.00 72 1014.9
20260507214948 63 183 6.0 8.0 0.00 0.00 0.00 72 1014.8
20260507214448 63 186 7.0 8.0 0.00 0.00 0.00 72 1014.6
20260507213949 63 185 7.0 8.0 0.00 0.00 0.00 72 1014.5
20260507213450 63 183 7.0 8.0 0.00 0.00 0.00 72 1014.4
20260507212949 63 184 7.0 8.0 0.00 0.00 0.00 72 1014.5
20260507212449 63 185 7.0 8.0 0.00 0.00 0.00 72 1014.5
20260507211948 63 186 8.0 8.0 0.00 0.00 0.00 72 1014.5
20260507211448 63 185 7.0 8.0 0.00 0.00 0.00 72 1014.5
20260507210948 63 184 7.0 8.0 0.00 0.00 0.00 72 1014.5
20260507210449 63 183 7.0 8.0 0.00 0.00 0.00 72 1014.4
20260507205949 63 185 7.0 8.0 0.00 0.00 0.00 71 1014.6
20260507205450 63 183 7.0 8.0 0.00 0.00 0.00 72 1014.3
20260507204948 63 184 7.0 8.0 0.00 0.00 0.00 72 1014.1
20260507204449 63 184 7.0 8.0 0.00 0.00 0.00 72 1014.3
20260507203948 63 184 7.0 8.0 0.00 0.00 0.00 72 1014.2
20260507203449 63 183 7.0 8.0 0.00 0.00 0.00 72 1014.3
20260507202949 63 185 7.0 8.0 0.00 0.00 0.00 72 1014.1
20260507202448 63 185 7.0 8.0 0.00 0.00 0.00 71 1014.1
20260507201942 63 185 7.0 8.0 0.00 0.00 0.00 72 1014.2
20260507201441 63 185 7.0 8.0 0.00 0.00 0.00 71 1014.4
20260507200942 64 184 7.0 8.0 0.00 0.00 0.00 70 1014.3
20260507200440 64 184 7.0 8.0 0.00 0.00 0.00 70 1014.2
20260507195942 64 184 6.0 8.0 0.00 0.00 0.00 70 1014.1
20260507195441 64 184 7.0 8.0 0.00 0.00 0.00 69 1014.0
20260507194943 65 183 7.0 8.0 0.00 0.00 0.00 69 1014.0
20260507194442 65 182 7.0 8.0 0.00 0.00 0.00 68 1013.9
20260507193943 65 183 7.0 8.0 0.00 0.00 0.00 67 1013.9
20260507193441 65 182 7.0 8.0 0.00 0.00 0.00 67 1013.8
20260507192943 65 182 7.0 7.0 0.00 0.00 0.00 67 1013.8
20260507192440 65 182 7.0 8.0 0.00 0.00 0.00 67 1013.7
20260507191941 65 181 7.0 8.0 0.00 0.00 0.00 67 1013.7
20260507191441 65 182 7.0 8.0 0.00 0.00 0.00 66 1013.6
20260507190942 65 182 7.0 8.0 0.00 0.00 0.00 67 1013.6
20260507190440 65 183 7.0 8.0 0.00 0.00 0.00 66 1013.8
20260507185943 65 184 7.0 8.0 0.00 0.00 0.00 66 1013.7
20260507185441 65 184 7.0 8.0 0.00 0.00 0.00 67 1013.8
20260507184942 65 185 7.0 8.0 0.00 0.00 0.00 66 1014.0
20260507184440 66 183 7.0 8.0 0.00 0.00 0.00 67 1013.6
20260507183943 66 183 7.0 8.0 0.00 0.00 0.00 67 1013.7
20260507183432 66 184 7.0 8.0 0.00 0.00 0.00 66 1013.7
20260507182933 66 183 7.0 9.0 0.00 0.00 0.00 66 1013.9
20260507182434 66 183 7.0 10.0 0.00 0.00 0.00 65 1013.6
20260507181934 67 183 7.0 10.0 0.00 0.00 0.00 64 1013.7
20260507181433 67 183 7.0 8.0 0.00 0.00 0.00 65 1013.7
20260507180934 67 184 7.0 8.0 0.00 0.00 0.00 65 1013.4
20260507180432 67 185 8.0 8.0 0.00 0.00 0.00 65 1013.6
20260507175933 67 182 7.0 8.0 0.00 0.00 0.00 65 1013.6
20260507175432 67 183 7.0 8.0 0.00 0.00 0.00 65 1013.6
20260507174933 67 183 7.0 8.0 0.00 0.00 0.00 65 1013.4
20260507174434 67 184 7.0 8.0 0.00 0.00 0.00 65 1013.3
20260507173934 67 183 7.0 8.0 0.00 0.00 0.00 65 1013.2
20260507173432 68 183 7.0 8.0 0.00 0.00 0.00 65 1013.1
20260507172935 68 184 7.0 8.0 0.00 0.00 0.00 65 1013.1
20260507172433 68 185 7.0 8.0 0.00 0.00 0.00 64 1013.0
20260507171933 68 183 7.0 8.0 0.00 0.00 0.00 64 1012.9
20260507171433 69 184 7.0 8.0 0.00 0.00 0.00 64 1013.0
20260507170934 69 185 7.0 8.0 0.00 0.00 0.00 63 1012.9
20260507170433 69 183 7.0 8.0 0.00 0.00 0.00 61 1012.9
20260507165934 70 183 7.0 8.0 0.00 0.00 0.00 60 1012.7
20260507165433 70 183 7.0 8.0 0.00 0.00 0.00 61 1012.9
20260507164935 70 184 7.0 8.0 0.00 0.00 0.00 60 1012.8
20260507164432 70 183 7.0 8.0 0.00 0.00 0.00 60 1012.7
20260507163933 70 183 7.0 8.0 0.00 0.00 0.00 59 1012.4
20260507163432 71 181 7.0 8.0 0.00 0.00 0.00 60 1012.7
20260507162933 71 183 7.0 8.0 0.00 0.00 0.00 60 1012.6
20260507162434 71 183 7.0 8.0 0.00 0.00 0.00 59 1012.6
20260507161933 71 181 7.0 8.0 0.00 0.00 0.00 60 1012.6
20260507161433 71 183 8.0 8.0 0.00 0.00 0.00 60 1012.6
20260507160935 71 182 7.0 8.0 0.00 0.00 0.00 60 1012.6
20260507160432 71 183 7.0 9.0 0.00 0.00 0.00 59 1012.7
20260507155933 71 184 7.0 9.0 0.00 0.00 0.00 58 1012.8
20260507155432 71 182 7.0 9.0 0.00 0.00 0.00 58 1012.5
20260507154933 71 183 7.0 9.0 0.00 0.00 0.00 57 1012.5
20260507154436 71 182 7.0 9.0 0.00 0.00 0.00 57 1012.4
20260507153933 71 182 7.0 8.0 0.00 0.00 0.00 56 1012.6
20260507153432 71 183 7.0 8.0 0.00 0.00 0.00 58 1012.5
20260507152934 71 181 7.0 9.0 0.00 0.00 0.00 57 1012.5
20260507152433 72 183 7.0 9.0 0.00 0.00 0.00 56 1012.8
20260507151933 72 183 6.0 9.0 0.00 0.00 0.00 56 1012.8
20260507151432 72 183 7.0 9.0 0.00 0.00 0.00 57 1012.6
20260507150934 72 182 7.0 10.0 0.00 0.00 0.00 58 1012.6
20260507150434 71 183 7.0 10.0 0.00 0.00 0.00 56 1012.8
20260507145934 72 180 7.0 10.0 0.00 0.00 0.00 57 1012.5
20260507145433 72 183 7.0 9.0 0.00 0.00 0.00 56 1012.6
20260507144935 72 181 6.0 9.0 0.00 0.00 0.00 54 1012.7
20260507144433 73 181 8.0 9.0 0.00 0.00 0.00 55 1012.8
20260507143934 73 182 7.0 9.0 0.00 0.00 0.00 54 1012.6
20260507143433 73 176 6.0 9.0 0.00 0.00 0.00 54 1012.7
20260507142933 73 181 7.0 9.0 0.00 0.00 0.00 55 1012.8
20260507142434 73 180 7.0 9.0 0.00 0.00 0.00 54 1012.9
20260507141934 72 181 7.0 9.0 0.00 0.00 0.00 55 1012.9
20260507141433 71 182 6.0 9.0 0.00 0.00 0.00 56 1013.0
20260507140935 71 182 7.0 9.0 0.00 0.00 0.00 55 1012.9
20260507140432 71 181 7.0 9.0 0.00 0.00 0.00 54 1013.2
20260507135933 71 182 7.0 8.0 0.00 0.00 0.00 55 1013.1
20260507135432 71 183 8.0 9.0 0.00 0.00 0.00 54 1012.9
20260507134934 72 182 8.0 9.0 0.00 0.00 0.00 54 1013.1
20260507134434 72 182 7.0 9.0 0.00 0.00 0.00 53 1013.0
20260507133933 71 183 8.0 9.0 0.00 0.00 0.00 53 1013.0
20260507133432 72 182 8.0 9.0 0.00 0.00 0.00 54 1013.0
20260507132935 72 180 7.0 9.0 0.00 0.00 0.00 53 1013.0
20260507132432 72 183 7.0 9.0 0.00 0.00 0.00 52 1013.1
20260507131934 72 183 7.0 8.0 0.00 0.00 0.00 52 1013.0
20260507131432 72 183 7.0 8.0 0.00 0.00 0.00 52 1013.1
20260507130934 72 181 6.0 8.0 0.00 0.00 0.00 52 1013.1
20260507130434 72 181 7.0 8.0 0.00 0.00 0.00 52 1013.0
20260507125934 73 181 6.0 9.0 0.00 0.00 0.00 50 1013.1
20260507125432 73 182 7.0 9.0 0.00 0.00 0.00 51 1013.2
20260507124935 73 180 6.0 8.0 0.00 0.00 0.00 50 1013.4
20260507124432 73 181 6.0 8.0 0.00 0.00 0.00 49 1013.2
20260507123934 73 182 7.0 8.0 0.00 0.00 0.00 49 1013.2
20260507123432 73 184 8.0 8.0 0.00 0.00 0.00 48 1013.5
20260507122934 73 183 7.0 8.0 0.00 0.00 0.00 50 1013.4
20260507122434 73 182 6.0 9.0 0.00 0.00 0.00 49 1013.3
20260507121934 72 182 7.0 9.0 0.00 0.00 0.00 49 1013.5
20260507121432 71 184 7.0 8.0 0.00 0.00 0.00 50 1013.6
20260507120935 71 184 6.0 8.0 0.00 0.00 0.00 50 1013.7
20260507120432 71 186 6.0 8.0 0.00 0.00 0.00 49 1013.4
20260507115933 71 183 8.0 8.0 0.00 0.00 0.00 51 1013.7
20260507115433 71 183 7.0 8.0 0.00 0.00 0.00 50 1013.6
20260507114934 70 182 7.0 9.0 0.00 0.00 0.00 50 1013.7
20260507114434 71 182 6.0 9.0 0.00 0.00 0.00 51 1013.7
20260507113933 71 184 8.0 9.0 0.00 0.00 0.00 52 1013.6
20260507113434 71 184 6.0 8.0 0.00 0.00 0.00 48 1013.4
20260507112935 71 182 7.0 8.0 0.00 0.00 0.00 49 1013.7
20260507112432 71 182 7.0 9.0 0.00 0.00 0.00 49 1013.5
20260507111933 71 183 6.0 9.0 0.00 0.00 0.00 48 1013.6
20260507111432 71 182 7.0 9.0 0.00 0.00 0.00 49 1013.7
20260507110934 72 182 7.0 11.0 0.00 0.00 0.00 48 1013.7
20260507110434 71 181 7.0 11.0 0.00 0.00 0.00 47 1013.8
20260507105934 71 189 8.0 9.0 0.00 0.00 0.00 47 1013.8
20260507105433 70 182 8.0 10.0 0.00 0.00 0.00 50 1013.9
20260507104935 70 183 7.0 10.0 0.00 0.00 0.00 51 1013.9
20260507104432 70 183 6.0 8.0 0.00 0.00 0.00 54 1014.1
20260507103934 69 188 7.0 8.0 0.00 0.00 0.00 54 1014.2
20260507103433 69 185 7.0 8.0 0.00 0.00 0.00 53 1013.9
20260507102934 70 184 7.0 8.0 0.00 0.00 0.00 54 1013.9
20260507102434 69 184 7.0 9.0 0.00 0.00 0.00 52 1014.1
20260507101934 69 183 7.0 9.0 0.00 0.00 0.00 52 1014.0
20260507101432 69 181 7.0 11.0 0.00 0.00 0.00 52 1014.1
20260507100935 69 186 8.0 11.0 0.00 0.00 0.00 51 1014.1
20260507100432 69 185 6.0 9.0 0.00 0.00 0.00 52 1014.1
20260507095934 70 184 8.0 9.0 0.00 0.00 0.00 49 1014.1
20260507095432 70 183 7.0 10.0 0.00 0.00 0.00 49 1014.3
20260507094934 70 183 6.0 10.0 0.00 0.00 0.00 48 1014.1
20260507094434 70 182 7.0 9.0 0.00 0.00 0.00 51 1014.3
20260507093933 70 184 6.0 8.0 0.00 0.00 0.00 52 1014.3
20260507093432 70 182 7.0 8.0 0.00 0.00 0.00 52 1014.3
20260507092935 70 183 8.0 9.0 0.00 0.00 0.00 51 1014.3
20260507092432 70 183 7.0 9.0 0.00 0.00 0.00 52 1014.4
20260507091933 70 183 7.0 9.0 0.00 0.00 0.00 51 1014.5
20260507091432 69 192 6.0 10.0 0.00 0.00 0.00 51 1014.3
20260507090934 69 193 3.0 10.0 0.00 0.00 0.00 51 1014.3
20260507090433 69 182 9.0 11.0 0.00 0.00 0.00 52 1014.3
20260507085933 68 183 9.0 11.0 0.00 0.00 0.00 54 1014.3
20260507085432 68 183 8.0 10.0 0.00 0.00 0.00 55 1014.3
20260507084935 67 198 6.0 11.0 0.00 0.00 0.00 55 1014.3
20260507084433 67 186 7.0 11.0 0.00 0.00 0.00 61 1014.4
20260507083934 67 186 7.0 11.0 0.00 0.00 0.00 60 1014.2
20260507083432 67 186 8.0 11.0 0.00 0.00 0.00 59 1014.4
20260507082934 66 180 9.0 10.0 0.00 0.00 0.00 60 1014.1
20260507082433 66 187 7.0 11.0 0.00 0.00 0.00 62 1014.3
20260507081936 66 188 8.0 11.0 0.00 0.00 0.00 61 1014.3
20260507081432 65 183 5.0 10.0 0.00 0.00 0.00 64 1014.3
20260507080935 65 172 7.0 10.0 0.00 0.00 0.00 65 1014.4
20260507080433 64 180 7.0 9.0 0.00 0.00 0.00 65 1014.5
20260507075934 64 187 7.0 9.0 0.00 0.00 0.00 65 1014.4
20260507075432 64 182 6.0 10.0 0.00 0.00 0.00 65 1014.2
20260507074934 64 184 8.0 10.0 0.00 0.00 0.00 64 1014.4
20260507074432 64 180 6.0 9.0 0.00 0.00 0.00 63 1014.4
20260507073935 64 194 5.0 10.0 0.00 0.00 0.00 64 1014.5
20260507073433 64 195 6.0 10.0 0.00 0.00 0.00 64 1014.2
20260507072934 64 186 8.0 10.0 0.00 0.00 0.00 63 1014.3
20260507072433 64 187 7.0 9.0 0.00 0.00 0.00 63 1014.2
20260507071935 64 180 5.0 11.0 0.00 0.00 0.00 63 1014.1
20260507071432 64 181 8.0 11.0 0.00 0.00 0.00 63 1014.3
20260507070934 64 183 7.0 11.0 0.00 0.00 0.00 63 1014.4
20260507070432 64 192 9.0 11.0 0.00 0.00 0.00 64 1014.1
20260507065934 64 180 8.0 10.0 0.00 0.00 0.00 64 1014.2
20260507065436 64 180 7.0 9.0 0.00 0.00 0.00 63 1014.2
20260507064933 64 185 7.0 9.0 0.00 0.00 0.00 64 1014.2
20260507064432 64 184 6.0 9.0 0.00 0.00 0.00 63 1014.1
20260507063935 64 187 8.0 9.0 0.00 0.00 0.00 64 1014.1
20260507063433 64 190 7.0 9.0 0.00 0.00 0.00 64 1014.1
20260507062932 64 186 7.0 8.0 0.00 0.00 0.00 65 1014.0
20260507062434 64 187 8.0 8.0 0.00 0.00 0.00 65 1014.0
20260507061933 64 191 7.0 8.0 0.00 0.00 0.00 66 1014.1
20260507061435 64 185 7.0 9.0 0.00 0.00 0.00 66 1013.8
20260507060933 64 189 7.0 9.0 0.00 0.00 0.00 66 1014.0
20260507060434 64 186 7.0 8.0 0.00 0.00 0.00 67 1013.7
20260507055934 64 184 7.0 9.0 0.00 0.00 0.00 67 1013.7
20260507055435 64 190 7.0 9.0 0.00 0.00 0.00 67 1013.7
20260507054932 64 180 6.0 9.0 0.00 0.00 0.00 67 1013.8
20260507054434 64 183 6.0 8.0 0.00 0.00 0.00 67 1013.7
20260507053933 64 187 6.0 9.0 0.00 0.00 0.00 67 1013.6
20260507053435 64 189 5.0 9.0 0.00 0.00 0.00 68 1013.5
20260507052933 64 184 6.0 9.0 0.00 0.00 0.00 70 1013.5
20260507052433 64 176 6.0 11.0 0.00 0.00 0.00 70 1013.4
20260507051934 64 188 7.0 11.0 0.00 0.00 0.00 71 1013.6
20260507051434 63 180 8.0 10.0 0.00 0.00 0.00 72 1013.5
20260507050933 63 181 6.0 10.0 0.00 0.00 0.00 75 1013.5
20260507050436 63 187 8.0 10.0 0.00 0.00 0.00 77 1013.3
20260507045933 63 186 7.0 11.0 0.00 0.00 0.00 77 1013.3
20260507045434 63 178 8.0 11.0 0.00 0.00 0.00 77 1013.3
20260507044933 63 186 10.0 11.0 0.00 0.00 0.00 77 1013.0
20260507044434 63 187 8.0 9.0 0.00 0.00 0.00 77 1013.1
20260507043934 63 173 7.0 9.0 0.00 0.00 0.00 77 1013.1
20260507043433 63 201 7.0 9.0 0.00 0.00 0.00 77 1013.2
20260507042932 63 197 4.0 8.0 0.00 0.00 0.00 78 1013.1
20260507042435 63 183 7.0 8.0 0.00 0.00 0.00 77 1013.0
20260507041932 63 186 7.0 8.0 0.00 0.00 0.00 77 1013.0
20260507041434 63 186 7.0 8.0 0.00 0.00 0.00 77 1013.0
20260507040932 63 183 7.0 9.0 0.00 0.00 0.00 77 1012.8
20260507040434 63 187 7.0 9.0 0.00 0.00 0.00 77 1012.7
20260507035932 63 192 6.0 8.0 0.00 0.00 0.00 77 1012.6
20260507035434 63 183 7.0 8.0 0.00 0.00 0.00 76 1012.4
20260507034933 63 184 7.0 8.0 0.00 0.00 0.00 75 1012.5
20260507034435 63 184 7.0 8.0 0.00 0.00 0.00 75 1012.7
20260507033932 63 184 7.0 7.0 0.00 0.00 0.00 74 1012.4
20260507033434 63 183 7.0 8.0 0.00 0.00 0.00 74 1012.6
20260507032933 63 184 7.0 8.0 0.00 0.00 0.00 73 1012.5
20260507032433 63 185 7.0 8.0 0.00 0.00 0.00 73 1012.5
20260507031934 63 183 7.0 8.0 0.00 0.00 0.00 72 1012.5
20260507031434 64 184 7.0 8.0 0.00 0.00 0.00 72 1012.7
20260507030932 64 184 6.0 8.0 0.00 0.00 0.00 72 1012.3
20260507030436 64 184 7.0 8.0 0.00 0.00 0.00 71 1012.5
20260507025935 63 183 7.0 8.0 0.00 0.00 0.00 71 1012.4
20260507025434 64 183 7.0 8.0 0.00 0.00 0.00 71 1012.1
20260507024932 64 183 7.0 8.0 0.00 0.00 0.00 71 1012.2
20260507024434 64 185 7.0 8.0 0.00 0.00 0.00 71 1012.2
20260507023934 64 184 7.0 8.0 0.00 0.00 0.00 71 1012.0
20260507023434 64 184 7.0 8.0 0.00 0.00 0.00 70 1012.1
20260507022933 64 186 7.0 8.0 0.00 0.00 0.00 70 1012.0
20260507022436 64 184 7.0 8.0 0.00 0.00 0.00 70 1012.0
20260507021933 64 183 7.0 8.0 0.00 0.00 0.00 70 1011.9
20260507021434 64 183 7.0 7.0 0.00 0.00 0.00 70 1011.9
20260507020933 64 182 7.0 8.0 0.00 0.00 0.00 70 1011.7
20260507020434 64 184 7.0 8.0 0.00 0.00 0.00 70 1011.9
20260507015934 64 185 7.0 8.0 0.00 0.00 0.00 69 1011.8
20260507015434 64 183 7.0 8.0 0.00 0.00 0.00 69 1011.6
20260507014932 64 184 6.0 8.0 0.00 0.00 0.00 69 1011.7
20260507014435 64 185 7.0 8.0 0.00 0.00 0.00 69 1011.6
20260507013933 64 182 7.0 8.0 0.00 0.00 0.00 69 1011.6
20260507013434 64 183 7.0 8.0 0.00 0.00 0.00 69 1011.6
20260507012933 64 184 7.0 8.0 0.00 0.00 0.00 69 1011.5
20260507012434 64 184 7.0 8.0 0.00 0.00 0.00 69 1011.7
20260507011934 65 184 7.0 8.0 0.00 0.00 0.00 68 1011.6
20260507011434 65 183 7.0 8.0 0.00 0.00 0.00 67 1011.6
20260507010933 65 183 7.0 8.0 0.00 0.00 0.00 67 1011.6
20260507010435 65 183 7.0 8.0 0.00 0.00 0.00 66 1011.6
20260507005933 65 183 7.0 8.0 0.00 0.00 0.00 66 1011.4
20260507005434 65 183 7.0 8.0 0.00 0.00 0.00 65 1011.4
20260507004932 65 183 7.0 7.0 0.00 0.00 0.00 65 1011.2
20260507004434 66 183 6.0 7.0 0.00 0.00 0.00 65 1011.3
20260507003934 66 183 6.0 7.0 0.00 0.00 0.00 64 1011.4
20260507003436 66 183 7.0 7.0 0.00 0.00 0.00 64 1011.1
20260507002933 67 182 6.0 8.0 0.00 0.00 0.00 64 1011.2